QPF
0.00 0.00 0.00 0.00 0.00 0.00 0.00 0.00 0.01 0.01 0.02 0.02 0.01 0.01 0.01 0.01 0.01 0.01 0.01 0.00 0.00 0.00 0.00 0.00 0.01 0.01 0.00 0.00 0.00 0.00 0.00 0.00 0.00 0.01 0.01 0.00 0.00 0.00 0.00 0.00 0.00 0.00 0.00 0.00 0.00 0.00 0.01 0.01 0.01
0.00 0.00 0.00 0.00 0.00 0.00 0.00 0.01 0.02 0.02 0.02 0.02 0.01 0.01 0.02 0.01 0.00 0.01 0.01 0.00 0.00 0.00 0.00 0.00 0.00 0.00 0.00 0.00 0.00 0.00 0.00 0.00 0.00 0.01 0.01 0.01 0.01 0.00 0.00 0.00 0.00 0.00 0.00 0.00 0.00 0.01 0.01 0.01 0.01
0.00 0.00 0.00 0.00 0.00 0.00 0.00 0.01 0.02 0.02 0.02 0.02 0.01 0.01 0.02 0.02 0.01 0.00 0.01 0.00 0.00 0.00 0.00 0.00 0.01 0.00 0.00 0.00 0.00 0.00 0.00 0.00 0.00 0.00 0.01 0.01 0.01 0.02 0.01 0.01 0.01 0.01 0.01 0.00 0.01 0.01 0.00 0.00 0.01
0.00 0.00 0.00 0.00 0.00 0.00 0.00 0.01 0.02 0.03 0.02 0.01 0.01 0.01 0.01 0.01 0.01 0.01 0.01 0.00 0.00 0.00 0.00 0.01 0.01 0.00 0.00 0.00 0.00 0.00 0.00 0.00 0.00 0.00 0.00 0.01 0.01 0.01 0.01 0.01 0.01 0.01 0.01 0.01 0.01 0.01 0.00 0.00 0.00
0.00 0.00 0.00 0.00 0.00 0.00 0.01 0.01 0.02 0.03 0.03 0.02 0.02 0.01 0.01 0.01 0.01 0.01 0.01 0.01 0.01 0.01 0.01 0.01 0.02 0.01 0.00 0.00 0.00 0.00 0.00 0.00 0.00 0.00 0.00 0.01 0.01 0.01 0.01 0.01 0.01 0.01 0.01 0.01 0.01 0.00 0.00 0.00 0.00
0.00 0.00 0.00 0.00 0.00 0.00 0.01 0.01 0.02 0.02 0.03 0.02 0.02 0.02 0.01 0.01 0.03 0.03 0.05 0.02 0.01 0.01 0.01 0.02 0.02 0.01 0.00 0.00 0.00 0.00 0.00 0.00 0.00 0.00 0.00 0.01 0.01 0.01 0.02 0.02 0.02 0.02 0.01 0.01 0.01 0.00 0.01 0.00 0.00
0.00 0.00 0.00 0.00 0.00 0.00 0.01 0.01 0.01 0.03 0.03 0.02 0.01 0.02 0.01 0.02 0.04 0.04 0.05 0.02 0.01 0.01 0.01 0.01 0.01 0.01 0.01 0.01 0.00 0.00 0.00 0.00 0.00 0.00 0.00 0.01 0.01 0.01 0.01 0.01 0.01 0.02 0.01 0.01 0.01 0.01 0.01 0.01 0.01
0.00 0.00 0.00 0.00 0.00 0.01 0.01 0.01 0.01 0.03 0.04 0.03 0.02 0.03 0.02 0.02 0.02 0.02 0.01 0.01 0.01 0.01 0.01 0.01 0.01 0.01 0.01 0.01 0.01 0.01 0.00 0.00 0.01 0.01 0.01 0.01 0.01 0.01 0.01 0.01 0.01 0.01 0.02 0.02 0.02 0.02 0.02 0.01 0.01
0.00 0.00 0.00 0.00 0.00 0.01 0.01 0.01 0.02 0.02 0.02 0.05 0.04 0.04 0.04 0.03 0.03 0.02 0.02 0.01 0.01 0.01 0.01 0.01 0.01 0.01 0.01 0.02 0.01 0.01 0.00 0.00 0.00 0.01 0.01 0.01 0.01 0.01 0.01 0.01 0.02 0.03 0.04 0.05 0.05 0.04 0.03 0.02 0.02
0.00 0.00 0.00 0.00 0.00 0.00 0.01 0.02 0.02 0.02 0.02 0.05 0.06 0.05 0.06 0.04 0.03 0.02 0.02 0.02 0.01 0.01 0.01 0.01 0.01 0.01 0.01 0.00 0.01 0.01 0.01 0.00 0.00 0.00 0.00 0.00 0.00 0.01 0.01 0.01 0.03 0.07 0.07 0.07 0.07 0.06 0.05 0.04 0.03
0.00 0.00 0.00 0.00 0.00 0.01 0.01 0.02 0.02 0.02 0.02 0.04 0.04 0.05 0.05 0.04 0.02 0.02 0.04 0.04 0.03 0.02 0.01 0.01 0.02 0.01 0.02 0.01 0.01 0.02 0.02 0.01 0.01 0.01 0.01 0.01 0.01 0.02 0.01 0.01 0.02 0.04 0.06 0.05 0.05 0.06 0.05 0.05 0.04
0.00 0.00 0.00 0.00 0.01 0.01 0.02 0.03 0.03 0.04 0.04 0.04 0.04 0.04 0.03 0.03 0.04 0.05 0.05 0.05 0.04 0.05 0.04 0.04 0.03 0.03 0.04 0.05 0.04 0.03 0.03 0.02 0.03 0.03 0.04 0.04 0.05 0.05 0.04 0.03 0.03 0.03 0.05 0.04 0.03 0.02 0.03 0.04 0.04
0.00 0.00 0.00 0.00 0.01 0.03 0.03 0.03 0.02 0.03 0.05 0.06 0.06 0.06 0.05 0.05 0.07 0.07 0.06 0.06 0.07 0.07 0.07 0.08 0.08 0.08 0.08 0.08 0.07 0.04 0.03 0.03 0.04 0.06 0.06 0.06 0.06 0.06 0.05 0.05 0.05 0.05 0.06 0.05 0.03 0.01 0.02 0.04 0.04
0.00 0.00 0.01 0.01 0.02 0.03 0.03 0.03 0.02 0.03 0.05 0.08 0.10 0.10 0.08 0.08 0.08 0.07 0.07 0.07 0.09 0.09 0.10 0.09 0.09 0.10 0.11 0.09 0.06 0.05 0.05 0.05 0.05 0.05 0.05 0.06 0.06 0.06 0.06 0.07 0.07 0.07 0.06 0.06 0.05 0.03 0.04 0.04 0.04
0.00 0.01 0.01 0.01 0.01 0.02 0.03 0.03 0.03 0.03 0.08 0.11 0.14 0.17 0.18 0.13 0.12 0.12 0.11 0.11 0.11 0.11 0.09 0.08 0.08 0.10 0.10 0.10 0.07 0.06 0.07 0.07 0.07 0.07 0.06 0.06 0.06 0.06 0.06 0.07 0.07 0.08 0.09 0.09 0.07 0.06 0.05 0.04 0.03
0.01 0.01 0.01 0.01 0.01 0.02 0.03 0.03 0.02 0.04 0.08 0.12 0.15 0.19 0.21 0.19 0.21 0.18 0.12 0.11 0.11 0.11 0.08 0.08 0.09 0.08 0.08 0.10 0.11 0.12 0.13 0.13 0.14 0.13 0.11 0.09 0.07 0.08 0.09 0.11 0.11 0.10 0.10 0.10 0.08 0.06 0.04 0.03 0.03
0.01 0.01 0.01 0.03 0.03 0.01 0.02 0.04 0.03 0.03 0.06 0.09 0.11 0.14 0.13 0.13 0.12 0.11 0.10 0.10 0.12 0.10 0.09 0.08 0.08 0.09 0.11 0.15 0.17 0.18 0.20 0.21 0.20 0.17 0.16 0.14 0.11 0.10 0.14 0.15 0.15 0.13 0.11 0.09 0.07 0.05 0.04 0.04 0.03
0.00 0.01 0.01 0.02 0.02 0.01 0.02 0.02 0.02 0.05 0.06 0.06 0.09 0.11 0.10 0.07 0.06 0.07 0.08 0.08 0.07 0.06 0.06 0.07 0.08 0.10 0.13 0.16 0.18 0.19 0.18 0.17 0.16 0.14 0.12 0.10 0.09 0.10 0.14 0.14 0.12 0.12 0.10 0.08 0.08 0.07 0.06 0.05 0.04
0.01 0.01 0.01 0.01 0.01 0.01 0.01 0.01 0.03 0.05 0.07 0.06 0.06 0.10 0.12 0.08 0.07 0.06 0.06 0.06 0.07 0.07 0.07 0.06 0.07 0.08 0.09 0.10 0.11 0.13 0.15 0.16 0.15 0.12 0.10 0.09 0.09 0.10 0.11 0.10 0.09 0.08 0.08 0.08 0.07 0.07 0.07 0.06 0.05
0.01 0.01 0.01 0.01 0.01 0.01 0.01 0.01 0.02 0.06 0.09 0.08 0.07 0.07 0.07 0.07 0.04 0.04 0.06 0.07 0.08 0.09 0.08 0.07 0.07 0.08 0.08 0.10 0.11 0.11 0.11 0.11 0.10 0.09 0.08 0.09 0.09 0.10 0.10 0.09 0.07 0.06 0.05 0.04 0.05 0.05 0.05 0.04 0.05
0.01 0.01 0.01 0.01 0.02 0.02 0.02 0.02 0.02 0.03 0.07 0.07 0.05 0.04 0.04 0.04 0.04 0.04 0.06 0.07 0.09 0.11 0.09 0.07 0.08 0.08 0.08 0.09 0.10 0.08 0.07 0.07 0.07 0.06 0.07 0.08 0.09 0.11 0.12 0.13 0.10 0.08 0.07 0.06 0.07 0.06 0.05 0.04 0.03
0.00 0.01 0.01 0.01 0.02 0.01 0.02 0.02 0.02 0.02 0.03 0.03 0.03 0.02 0.03 0.04 0.03 0.04 0.06 0.07 0.07 0.08 0.09 0.08 0.07 0.07 0.07 0.07 0.06 0.06 0.04 0.06 0.06 0.05 0.05 0.06 0.07 0.09 0.11 0.11 0.10 0.09 0.09 0.08 0.08 0.07 0.05 0.04 0.04
0.00 0.00 0.01 0.00 0.00 0.00 0.01 0.01 0.01 0.01 0.02 0.02 0.02 0.02 0.03 0.03 0.03 0.04 0.05 0.05 0.04 0.04 0.06 0.07 0.09 0.08 0.08 0.08 0.08 0.07 0.05 0.05 0.06 0.06 0.06 0.06 0.06 0.06 0.07 0.08 0.09 0.09 0.09 0.08 0.08 0.07 0.05 0.04 0.04
0.00 0.00 0.00 0.00 0.00 0.00 0.00 0.00 0.00 0.01 0.01 0.02 0.02 0.02 0.03 0.03 0.03 0.04 0.04 0.04 0.03 0.03 0.04 0.04 0.07 0.10 0.09 0.08 0.08 0.07 0.06 0.05 0.05 0.05 0.05 0.04 0.04 0.05 0.07 0.08 0.06 0.06 0.07 0.07 0.08 0.07 0.05 0.05 0.04
0.00 0.00 0.00 0.00 0.00 0.00 0.00 0.00 0.00 0.00 0.01 0.02 0.04 0.06 0.04 0.03 0.02 0.02 0.03 0.03 0.03 0.03 0.03 0.03 0.06 0.09 0.09 0.08 0.06 0.05 0.05 0.05 0.06 0.06 0.05 0.05 0.05 0.05 0.05 0.05 0.04 0.03 0.03 0.03 0.03 0.02 0.03 0.04 0.04
0.00 0.00 0.00 0.00 0.00 0.00 0.00 0.00 0.00 0.01 0.01 0.02 0.04 0.05 0.03 0.02 0.02 0.03 0.04 0.04 0.04 0.04 0.04 0.05 0.08 0.08 0.08 0.08 0.06 0.06 0.06 0.06 0.06 0.05 0.04 0.04 0.05 0.05 0.05 0.05 0.04 0.03 0.02 0.01 0.01 0.01 0.02 0.03 0.03
0.00 0.00 0.00 0.00 0.00 0.00 0.00 0.00 0.00 0.00 0.01 0.01 0.00 0.00 0.01 0.01 0.02 0.03 0.04 0.05 0.05 0.05 0.05 0.06 0.09 0.08 0.07 0.06 0.07 0.06 0.05 0.04 0.04 0.04 0.04 0.05 0.05 0.05 0.06 0.06 0.05 0.04 0.03 0.02 0.01 0.01 0.02 0.02 0.03
0.00 0.00 0.00 0.00 0.00 0.00 0.00 0.00 0.00 0.00 0.00 0.00 0.00 0.00 0.00 0.00 0.01 0.02 0.03 0.04 0.05 0.06 0.05 0.06 0.07 0.06 0.05 0.03 0.03 0.03 0.03 0.03 0.03 0.03 0.03 0.04 0.04 0.05 0.06 0.06 0.06 0.05 0.04 0.03 0.02 0.02 0.02 0.02 0.02
0.00 0.00 0.00 0.00 0.00 0.00 0.00 0.00 0.00 0.00 0.00 0.00 0.00 0.00 0.01 0.01 0.01 0.01 0.02 0.03 0.04 0.05 0.04 0.03 0.04 0.03 0.02 0.02 0.02 0.02 0.03 0.03 0.02 0.02 0.03 0.04 0.04 0.05 0.06 0.07 0.07 0.07 0.06 0.04 0.02 0.02 0.02 0.01 0.01
0.00 0.00 0.00 0.00 0.00 0.00 0.00 0.00 0.00 0.01 0.00 0.00 0.00 0.00 0.01 0.01 0.01 0.01 0.02 0.04 0.04 0.03 0.03 0.03 0.02 0.02 0.02 0.01 0.02 0.03 0.04 0.04 0.03 0.03 0.03 0.04 0.04 0.05 0.07 0.08 0.09 0.09 0.08 0.07 0.06 0.03 0.02 0.02 0.01
MSLP
1010.47 1011.38 1012.41 1013.36 1014.03 1014.32 1014.16 1013.60 1012.78 1011.87 1011.05 1010.44 1010.12 1010.06 1010.19 1010.39 1010.53 1010.54 1010.39 1010.12 1009.81 1009.55 1009.45 1009.53 1009.81 1010.23 1010.71 1011.18 1011.59 1011.89 1012.12 1012.31 1012.51 1012.76 1013.08 1013.45 1013.83 1014.18 1014.46 1014.65 1014.76 1014.82 1014.87 1014.95 1015.07 1015.23 1015.42 1015.60 1015.74
1011.02 1012.06 1013.14 1014.04 1014.59 1014.67 1014.28 1013.47 1012.42 1011.30 1010.32 1009.62 1009.25 1009.18 1009.32 1009.55 1009.75 1009.82 1009.75 1009.56 1009.34 1009.18 1009.16 1009.33 1009.69 1010.17 1010.73 1011.26 1011.73 1012.11 1012.41 1012.66 1012.91 1013.18 1013.48 1013.80 1014.11 1014.37 1014.56 1014.67 1014.72 1014.76 1014.81 1014.91 1015.07 1015.27 1015.49 1015.68 1015.83
1011.72 1012.85 1013.92 1014.74 1015.14 1015.04 1014.44 1013.44 1012.21 1010.97 1009.91 1009.15 1008.74 1008.65 1008.77 1008.99 1009.18 1009.26 1009.21 1009.08 1008.93 1008.85 1008.93 1009.19 1009.63 1010.20 1010.81 1011.40 1011.92 1012.34 1012.68 1012.96 1013.22 1013.49 1013.77 1014.04 1014.28 1014.47 1014.59 1014.64 1014.66 1014.68 1014.74 1014.86 1015.05 1015.29 1015.53 1015.74 1015.89
1012.46 1013.63 1014.66 1015.37 1015.62 1015.34 1014.58 1013.46 1012.15 1010.87 1009.79 1009.03 1008.61 1008.49 1008.58 1008.75 1008.89 1008.93 1008.87 1008.75 1008.65 1008.66 1008.83 1009.18 1009.71 1010.33 1010.98 1011.59 1012.12 1012.54 1012.87 1013.14 1013.39 1013.64 1013.89 1014.13 1014.33 1014.47 1014.55 1014.58 1014.58 1014.61 1014.68 1014.83 1015.04 1015.30 1015.55 1015.78 1015.93
1013.14 1014.29 1015.23 1015.81 1015.90 1015.49 1014.63 1013.46 1012.15 1010.92 1009.90 1009.19 1008.80 1008.68 1008.72 1008.82 1008.88 1008.85 1008.76 1008.65 1008.59 1008.66 1008.91 1009.34 1009.92 1010.57 1011.22 1011.81 1012.29 1012.66 1012.95 1013.18 1013.40 1013.63 1013.86 1014.08 1014.27 1014.41 1014.48 1014.51 1014.53 1014.56 1014.65 1014.82 1015.04 1015.30 1015.56 1015.79 1015.94
1013.67 1014.74 1015.54 1015.96 1015.91 1015.39 1014.49 1013.34 1012.12 1011.01 1010.12 1009.53 1009.20 1009.09 1009.10 1009.13 1009.12 1009.03 1008.90 1008.78 1008.76 1008.89 1009.20 1009.67 1010.27 1010.91 1011.51 1012.02 1012.42 1012.71 1012.91 1013.09 1013.27 1013.47 1013.70 1013.94 1014.14 1014.30 1014.40 1014.45 1014.49 1014.54 1014.64 1014.81 1015.03 1015.29 1015.55 1015.76 1015.91
1013.99 1014.92 1015.55 1015.79 1015.59 1015.00 1014.10 1013.04 1011.97 1011.03 1010.33 1009.88 1009.66 1009.60 1009.61 1009.60 1009.53 1009.39 1009.24 1009.13 1009.13 1009.30 1009.64 1010.13 1010.70 1011.28 1011.80 1012.20 1012.48 1012.66 1012.78 1012.89 1013.03 1013.24 1013.48 1013.75 1013.99 1014.19 1014.33 1014.41 1014.46 1014.53 1014.63 1014.79 1015.00 1015.24 1015.47 1015.67 1015.81
1014.12 1014.86 1015.28 1015.33 1015.00 1014.35 1013.47 1012.52 1011.63 1010.90 1010.40 1010.13 1010.04 1010.06 1010.09 1010.08 1009.99 1009.85 1009.69 1009.60 1009.63 1009.82 1010.17 1010.63 1011.15 1011.64 1012.04 1012.32 1012.47 1012.54 1012.58 1012.64 1012.77 1012.98 1013.26 1013.56 1013.85 1014.09 1014.26 1014.37 1014.43 1014.49 1014.58 1014.72 1014.91 1015.12 1015.33 1015.52 1015.65
1014.09 1014.61 1014.81 1014.67 1014.21 1013.51 1012.68 1011.85 1011.12 1010.60 1010.30 1010.21 1010.26 1010.37 1010.46 1010.48 1010.41 1010.29 1010.16 1010.10 1010.15 1010.35 1010.68 1011.10 1011.53 1011.91 1012.19 1012.34 1012.39 1012.38 1012.36 1012.40 1012.54 1012.77 1013.08 1013.43 1013.75 1014.02 1014.21 1014.31 1014.37 1014.42 1014.48 1014.59 1014.75 1014.94 1015.13 1015.31 1015.44
1013.98 1014.27 1014.26 1013.94 1013.36 1012.62 1011.83 1011.10 1010.53 1010.17 1010.05 1010.11 1010.28 1010.48 1010.65 1010.73 1010.72 1010.64 1010.57 1010.55 1010.62 1010.81 1011.11 1011.45 1011.79 1012.06 1012.22 1012.27 1012.25 1012.18 1012.15 1012.20 1012.36 1012.62 1012.97 1013.34 1013.68 1013.96 1014.14 1014.23 1014.27 1014.28 1014.32 1014.40 1014.53 1014.70 1014.89 1015.05 1015.19
1013.86 1013.95 1013.75 1013.27 1012.60 1011.83 1011.06 1010.41 1009.95 1009.72 1009.72 1009.88 1010.15 1010.44 1010.67 1010.82 1010.88 1010.88 1010.87 1010.89 1010.98 1011.15 1011.39 1011.66 1011.89 1012.06 1012.13 1012.12 1012.05 1011.98 1011.96 1012.04 1012.24 1012.54 1012.90 1013.28 1013.62 1013.87 1014.03 1014.10 1014.11 1014.10 1014.11 1014.17 1014.28 1014.44 1014.62 1014.79 1014.92
1013.80 1013.73 1013.37 1012.79 1012.05 1011.26 1010.51 1009.92 1009.52 1009.37 1009.43 1009.66 1009.97 1010.31 1010.61 1010.83 1010.96 1011.03 1011.08 1011.13 1011.23 1011.37 1011.55 1011.72 1011.86 1011.94 1011.95 1011.90 1011.83 1011.78 1011.80 1011.93 1012.16 1012.48 1012.85 1013.21 1013.52 1013.74 1013.87 1013.91 1013.89 1013.87 1013.87 1013.92 1014.04 1014.19 1014.37 1014.54 1014.67
1013.83 1013.64 1013.20 1012.55 1011.79 1011.00 1010.29 1009.72 1009.36 1009.23 1009.31 1009.54 1009.87 1010.23 1010.56 1010.84 1011.03 1011.16 1011.26 1011.33 1011.42 1011.51 1011.61 1011.69 1011.75 1011.75 1011.72 1011.66 1011.61 1011.60 1011.67 1011.83 1012.09 1012.41 1012.76 1013.09 1013.35 1013.53 1013.63 1013.64 1013.63 1013.61 1013.63 1013.70 1013.82 1013.98 1014.15 1014.31 1014.44
1013.97 1013.72 1013.24 1012.59 1011.85 1011.10 1010.42 1009.89 1009.54 1009.40 1009.45 1009.65 1009.96 1010.31 1010.65 1010.96 1011.20 1011.37 1011.49 1011.57 1011.62 1011.65 1011.66 1011.65 1011.62 1011.56 1011.50 1011.44 1011.42 1011.45 1011.56 1011.75 1012.00 1012.30 1012.60 1012.87 1013.08 1013.22 1013.29 1013.32 1013.32 1013.34 1013.40 1013.50 1013.64 1013.81 1013.98 1014.12 1014.22
1014.18 1013.92 1013.46 1012.86 1012.18 1011.50 1010.88 1010.38 1010.03 1009.87 1009.88 1010.03 1010.29 1010.61 1010.95 1011.27 1011.54 1011.74 1011.86 1011.91 1011.91 1011.86 1011.78 1011.67 1011.55 1011.44 1011.35 1011.30 1011.29 1011.35 1011.48 1011.66 1011.88 1012.12 1012.35 1012.55 1012.70 1012.81 1012.88 1012.93 1012.98 1013.06 1013.18 1013.33 1013.50 1013.68 1013.83 1013.95 1014.00
1014.43 1014.18 1013.77 1013.26 1012.68 1012.10 1011.56 1011.11 1010.78 1010.59 1010.55 1010.64 1010.85 1011.14 1011.47 1011.80 1012.08 1012.28 1012.39 1012.41 1012.34 1012.21 1012.02 1011.81 1011.61 1011.45 1011.33 1011.27 1011.27 1011.33 1011.44 1011.58 1011.74 1011.89 1012.03 1012.15 1012.24 1012.32 1012.40 1012.50 1012.62 1012.78 1012.96 1013.17 1013.37 1013.55 1013.69 1013.76 1013.78
1014.64 1014.43 1014.10 1013.70 1013.25 1012.79 1012.35 1011.95 1011.64 1011.44 1011.36 1011.40 1011.57 1011.83 1012.15 1012.48 1012.78 1012.99 1013.08 1013.06 1012.92 1012.70 1012.41 1012.11 1011.83 1011.61 1011.45 1011.37 1011.36 1011.40 1011.47 1011.54 1011.61 1011.66 1011.69 1011.72 1011.75 1011.81 1011.90 1012.05 1012.24 1012.47 1012.73 1012.98 1013.21 1013.39 1013.50 1013.55 1013.52
1014.78 1014.61 1014.38 1014.10 1013.79 1013.46 1013.12 1012.79 1012.50 1012.29 1012.17 1012.19 1012.33 1012.57 1012.90 1013.25 1013.56 1013.78 1013.87 1013.81 1013.62 1013.31 1012.94 1012.55 1012.21 1011.93 1011.74 1011.63 1011.59 1011.59 1011.60 1011.59 1011.55 1011.49 1011.41 1011.33 1011.30 1011.32 1011.42 1011.60 1011.85 1012.14 1012.45 1012.74 1012.98 1013.16 1013.25 1013.27 1013.22
1014.81 1014.70 1014.57 1014.42 1014.24 1014.03 1013.78 1013.51 1013.24 1013.02 1012.88 1012.87 1012.99 1013.24 1013.59 1013.97 1014.32 1014.57 1014.66 1014.59 1014.36 1014.00 1013.56 1013.11 1012.70 1012.38 1012.15 1012.02 1011.95 1011.91 1011.86 1011.76 1011.62 1011.44 1011.24 1011.07 1010.95 1010.93 1011.01 1011.20 1011.47 1011.79 1012.12 1012.42 1012.66 1012.82 1012.90 1012.91 1012.86
1014.76 1014.71 1014.68 1014.65 1014.60 1014.49 1014.32 1014.09 1013.82 1013.58 1013.41 1013.37 1013.49 1013.75 1014.13 1014.56 1014.97 1015.26 1015.39 1015.33 1015.08 1014.69 1014.21 1013.71 1013.27 1012.92 1012.67 1012.52 1012.43 1012.36 1012.25 1012.08 1011.84 1011.56 1011.25 1010.97 1010.77 1010.68 1010.71 1010.87 1011.11 1011.41 1011.73 1012.01 1012.23 1012.37 1012.44 1012.45 1012.42
1014.65 1014.69 1014.77 1014.86 1014.91 1014.89 1014.76 1014.53 1014.24 1013.96 1013.75 1013.68 1013.78 1014.06 1014.49 1014.98 1015.45 1015.82 1016.00 1015.98 1015.74 1015.34 1014.85 1014.33 1013.87 1013.51 1013.25 1013.10 1013.00 1012.90 1012.76 1012.55 1012.24 1011.87 1011.47 1011.09 1010.79 1010.61 1010.56 1010.63 1010.81 1011.04 1011.29 1011.52 1011.70 1011.82 1011.88 1011.91 1011.91
1014.58 1014.72 1014.92 1015.12 1015.26 1015.29 1015.17 1014.91 1014.57 1014.22 1013.95 1013.83 1013.92 1014.22 1014.68 1015.24 1015.79 1016.23 1016.48 1016.51 1016.31 1015.93 1015.44 1014.92 1014.46 1014.09 1013.85 1013.70 1013.61 1013.51 1013.36 1013.12 1012.78 1012.35 1011.88 1011.42 1011.02 1010.73 1010.56 1010.52 1010.58 1010.70 1010.85 1010.99 1011.10 1011.19 1011.24 1011.28 1011.33
1014.61 1014.89 1015.22 1015.53 1015.74 1015.79 1015.65 1015.34 1014.92 1014.48 1014.12 1013.94 1014.00 1014.29 1014.79 1015.40 1016.02 1016.54 1016.86 1016.95 1016.79 1016.44 1015.97 1015.46 1015.00 1014.65 1014.41 1014.28 1014.20 1014.13 1013.99 1013.76 1013.40 1012.95 1012.43 1011.90 1011.41 1011.01 1010.71 1010.53 1010.45 1010.43 1010.45 1010.48 1010.51 1010.54 1010.58 1010.63 1010.71
1014.82 1015.25 1015.71 1016.11 1016.38 1016.43 1016.25 1015.87 1015.34 1014.80 1014.35 1014.10 1014.11 1014.39 1014.90 1015.55 1016.22 1016.80 1017.19 1017.33 1017.22 1016.90 1016.44 1015.95 1015.50 1015.15 1014.92 1014.80 1014.75 1014.69 1014.59 1014.37 1014.04 1013.58 1013.04 1012.47 1011.91 1011.41 1010.99 1010.67 1010.43 1010.26 1010.14 1010.05 1009.99 1009.95 1009.95 1010.00 1010.09
1015.23 1015.80 1016.38 1016.87 1017.17 1017.21 1016.98 1016.51 1015.89 1015.24 1014.70 1014.37 1014.32 1014.58 1015.08 1015.75 1016.45 1017.07 1017.49 1017.67 1017.59 1017.30 1016.86 1016.38 1015.93 1015.57 1015.35 1015.23 1015.19 1015.17 1015.09 1014.91 1014.61 1014.17 1013.65 1013.06 1012.45 1011.88 1011.36 1010.91 1010.53 1010.22 1009.97 1009.76 1009.60 1009.49 1009.45 1009.47 1009.55
1015.79 1016.50 1017.18 1017.72 1018.03 1018.05 1017.76 1017.21 1016.51 1015.77 1015.15 1014.76 1014.66 1014.88 1015.36 1016.02 1016.73 1017.36 1017.80 1017.99 1017.93 1017.65 1017.23 1016.74 1016.28 1015.92 1015.69 1015.56 1015.53 1015.51 1015.46 1015.31 1015.05 1014.66 1014.16 1013.59 1012.97 1012.36 1011.78 1011.24 1010.76 1010.34 1009.97 1009.66 1009.42 1009.24 1009.14 1009.11 1009.16
1016.45 1017.24 1017.97 1018.54 1018.84 1018.82 1018.48 1017.87 1017.11 1016.32 1015.65 1015.22 1015.09 1015.27 1015.73 1016.36 1017.04 1017.65 1018.08 1018.27 1018.21 1017.94 1017.51 1017.03 1016.56 1016.19 1015.93 1015.79 1015.74 1015.72 1015.68 1015.56 1015.34 1014.99 1014.54 1014.01 1013.42 1012.81 1012.21 1011.64 1011.10 1010.61 1010.17 1009.78 1009.46 1009.22 1009.06 1008.98 1008.97
1017.07 1017.89 1018.63 1019.17 1019.43 1019.37 1018.99 1018.35 1017.57 1016.78 1016.10 1015.66 1015.52 1015.68 1016.10 1016.69 1017.33 1017.90 1018.30 1018.47 1018.40 1018.13 1017.71 1017.22 1016.75 1016.36 1016.09 1015.92 1015.84 1015.80 1015.76 1015.66 1015.47 1015.17 1014.78 1014.30 1013.77 1013.20 1012.63 1012.06 1011.52 1011.00 1010.53 1010.11 1009.74 1009.45 1009.24 1009.10 1009.03
1017.54 1018.32 1019.00 1019.47 1019.67 1019.56 1019.16 1018.53 1017.77 1017.02 1016.39 1015.99 1015.87 1016.02 1016.41 1016.95 1017.53 1018.05 1018.40 1018.54 1018.46 1018.19 1017.79 1017.32 1016.86 1016.47 1016.17 1015.98 1015.87 1015.80 1015.74 1015.63 1015.46 1015.21 1014.87 1014.46 1014.00 1013.51 1013.00 1012.49 1011.98 1011.49 1011.02 1010.59 1010.21 1009.89 1009.64 1009.45 1009.33
1017.76 1018.44 1019.00 1019.37 1019.48 1019.33 1018.92 1018.33 1017.65 1016.99 1016.46 1016.13 1016.06 1016.23 1016.60 1017.09 1017.61 1018.05 1018.36 1018.47 1018.38 1018.12 1017.75 1017.31 1016.88 1016.51 1016.21 1016.00 1015.86 1015.76 1015.66 1015.54 1015.37 1015.15 1014.86 1014.52 1014.14 1013.73 1013.31 1012.88 1012.44 1012.00 1011.57 1011.17 1010.79 1010.46 1010.19 1009.97 1009.81
Thickness
5793 5793 5791 5783 5764 5744 5746 5761 5774 5782 5792 5804 5808 5803 5794 5787 5781 5779 5799 5808 5805 5799 5794 5790 5786 5782 5779 5776 5773 5771 5769 5767 5764 5762 5760 5758 5756 5754 5752 5749 5747 5746 5744 5742 5741 5740 5738 5737 5736
5790 5790 5783 5769 5747 5734 5745 5765 5774 5785 5797 5806 5807 5802 5794 5790 5796 5796 5800 5804 5803 5798 5793 5788 5784 5780 5777 5774 5771 5768 5766 5764 5761 5759 5757 5755 5753 5750 5748 5746 5744 5743 5741 5740 5738 5737 5736 5735 5734
5788 5786 5769 5753 5740 5737 5754 5772 5779 5792 5802 5803 5799 5799 5793 5789 5795 5796 5801 5803 5800 5795 5791 5787 5783 5779 5775 5772 5769 5766 5763 5761 5759 5757 5754 5752 5750 5748 5745 5743 5741 5740 5738 5737 5735 5734 5733 5732 5731
5782 5772 5760 5746 5744 5751 5762 5776 5785 5789 5796 5800 5796 5789 5793 5799 5800 5800 5801 5799 5795 5792 5788 5785 5780 5776 5773 5770 5767 5764 5761 5758 5756 5754 5752 5749 5747 5745 5742 5740 5738 5737 5735 5734 5733 5731 5730 5729 5729
5774 5759 5744 5733 5743 5757 5769 5781 5787 5786 5788 5792 5791 5783 5785 5795 5801 5800 5797 5794 5791 5787 5784 5781 5778 5774 5770 5767 5764 5761 5758 5755 5753 5751 5749 5746 5744 5742 5740 5737 5735 5734 5732 5731 5729 5728 5727 5726 5726
5757 5748 5729 5727 5743 5760 5772 5782 5785 5784 5785 5789 5787 5781 5780 5791 5794 5793 5792 5789 5787 5784 5780 5777 5774 5771 5767 5764 5761 5758 5756 5753 5750 5748 5746 5743 5741 5739 5737 5735 5733 5731 5729 5728 5727 5725 5724 5723 5723
5749 5739 5732 5737 5742 5754 5773 5784 5782 5780 5781 5786 5789 5777 5778 5784 5789 5790 5787 5784 5781 5779 5775 5772 5770 5767 5764 5761 5758 5755 5753 5750 5747 5745 5743 5740 5738 5736 5734 5732 5730 5728 5727 5726 5725 5723 5722 5721 5720
5756 5742 5736 5735 5742 5754 5774 5781 5784 5782 5782 5792 5791 5776 5773 5781 5785 5784 5780 5777 5775 5773 5771 5768 5766 5764 5761 5757 5755 5752 5749 5746 5744 5741 5739 5737 5735 5733 5731 5729 5728 5725 5724 5723 5722 5721 5720 5719 5718
5759 5735 5729 5740 5747 5758 5772 5773 5780 5787 5785 5786 5788 5786 5786 5785 5782 5777 5771 5769 5768 5767 5766 5764 5762 5759 5756 5753 5751 5748 5746 5743 5740 5738 5736 5734 5732 5730 5728 5726 5724 5723 5721 5721 5720 5718 5717 5717 5716
5747 5729 5742 5756 5761 5764 5768 5770 5774 5776 5774 5775 5778 5782 5783 5779 5775 5771 5767 5764 5762 5761 5761 5759 5757 5754 5751 5749 5747 5744 5742 5739 5736 5734 5732 5730 5728 5726 5724 5722 5721 5719 5718 5718 5717 5715 5714 5713 5713
5749 5741 5752 5762 5767 5769 5766 5767 5772 5769 5764 5771 5772 5773 5773 5771 5768 5765 5763 5761 5760 5759 5757 5755 5753 5749 5747 5744 5743 5740 5737 5735 5732 5730 5728 5726 5724 5722 5720 5719 5717 5715 5714 5714 5713 5712 5711 5710 5709
5747 5752 5757 5762 5769 5767 5765 5766 5764 5765 5768 5777 5776 5773 5769 5765 5762 5761 5758 5757 5755 5754 5752 5751 5749 5745 5743 5740 5738 5735 5733 5730 5728 5726 5724 5721 5719 5717 5716 5714 5712 5711 5710 5709 5708 5708 5707 5706 5705
5747 5752 5760 5763 5763 5763 5763 5760 5760 5761 5770 5774 5773 5767 5763 5761 5759 5757 5755 5752 5750 5747 5747 5747 5745 5742 5739 5736 5733 5731 5729 5726 5724 5721 5719 5717 5714 5712 5710 5709 5708 5706 5705 5704 5703 5703 5702 5701 5701
5750 5752 5755 5757 5758 5761 5757 5755 5754 5757 5765 5764 5761 5759 5757 5756 5755 5753 5750 5747 5744 5743 5742 5742 5739 5737 5734 5731 5729 5727 5724 5722 5719 5717 5715 5712 5710 5707 5705 5704 5702 5700 5699 5699 5698 5697 5697 5696 5696
5751 5745 5745 5750 5753 5754 5754 5744 5746 5755 5757 5754 5753 5753 5752 5750 5749 5747 5746 5744 5741 5739 5739 5737 5734 5732 5730 5728 5726 5723 5719 5716 5714 5712 5710 5708 5706 5704 5701 5699 5697 5695 5694 5693 5692 5691 5691 5691 5690
5742 5732 5725 5740 5746 5749 5742 5727 5744 5751 5749 5745 5745 5746 5744 5743 5743 5743 5742 5739 5737 5735 5733 5731 5730 5727 5725 5723 5720 5717 5713 5710 5708 5707 5705 5703 5701 5699 5696 5694 5692 5690 5688 5687 5686 5685 5684 5684 5684
5720 5714 5717 5728 5740 5741 5734 5726 5739 5745 5742 5739 5739 5740 5738 5737 5737 5737 5736 5734 5731 5729 5727 5725 5724 5721 5719 5717 5714 5711 5708 5705 5703 5701 5699 5697 5695 5693 5691 5689 5686 5684 5682 5681 5680 5679 5678 5678 5677
5712 5712 5713 5716 5731 5732 5725 5724 5733 5738 5737 5734 5734 5734 5734 5733 5732 5732 5731 5729 5726 5724 5722 5720 5718 5716 5713 5710 5708 5705 5702 5699 5697 5695 5693 5691 5689 5687 5685 5682 5680 5678 5676 5674 5673 5672 5672 5671 5670
5722 5715 5710 5718 5731 5725 5720 5720 5726 5730 5729 5728 5728 5728 5728 5729 5729 5728 5725 5724 5721 5718 5716 5715 5712 5709 5707 5703 5700 5697 5694 5692 5690 5688 5686 5685 5683 5681 5679 5676 5674 5672 5670 5668 5666 5665 5663 5663 5662
5720 5713 5710 5717 5727 5722 5715 5716 5723 5726 5725 5726 5726 5725 5724 5723 5722 5721 5719 5717 5716 5714 5711 5708 5705 5702 5700 5697 5694 5691 5688 5686 5684 5681 5679 5678 5676 5674 5672 5670 5667 5665 5662 5660 5658 5656 5655 5654 5654
5718 5713 5713 5712 5718 5717 5712 5707 5715 5721 5723 5724 5724 5722 5721 5720 5717 5715 5713 5711 5710 5708 5707 5705 5700 5697 5694 5691 5687 5684 5680 5678 5676 5674 5671 5670 5668 5667 5665 5662 5660 5657 5655 5652 5650 5648 5647 5645 5644
5713 5725 5720 5713 5702 5693 5701 5684 5703 5711 5713 5717 5718 5717 5716 5717 5714 5712 5709 5706 5705 5704 5702 5698 5694 5691 5688 5685 5681 5677 5673 5669 5668 5666 5664 5662 5660 5659 5657 5655 5653 5650 5647 5645 5643 5641 5639 5638 5636
5722 5725 5717 5709 5698 5689 5691 5681 5690 5704 5704 5710 5714 5714 5713 5712 5711 5708 5705 5702 5700 5698 5695 5691 5687 5683 5680 5677 5673 5669 5666 5663 5660 5658 5656 5654 5653 5651 5649 5647 5645 5643 5640 5638 5636 5634 5632 5630 5629
5724 5714 5704 5693 5684 5673 5684 5676 5680 5694 5702 5706 5711 5712 5711 5709 5706 5704 5701 5698 5694 5692 5689 5685 5680 5676 5672 5668 5665 5662 5658 5654 5651 5649 5647 5645 5644 5643 5641 5639 5637 5635 5633 5630 5628 5626 5625 5623 5622
5714 5693 5672 5668 5660 5665 5681 5675 5679 5701 5707 5707 5707 5707 5706 5704 5701 5698 5695 5691 5688 5685 5681 5677 5673 5668 5665 5661 5658 5654 5651 5647 5644 5641 5639 5637 5636 5635 5633 5631 5629 5627 5625 5624 5621 5619 5617 5616 5615
5705 5694 5669 5657 5653 5661 5674 5671 5686 5704 5706 5707 5706 5704 5701 5698 5695 5693 5690 5686 5682 5679 5675 5670 5666 5662 5658 5654 5650 5647 5643 5640 5637 5635 5633 5630 5628 5627 5626 5624 5622 5620 5618 5616 5614 5612 5610 5609 5607
5699 5687 5686 5665 5660 5652 5661 5674 5689 5700 5699 5699 5698 5696 5694 5693 5691 5688 5685 5681 5677 5672 5668 5664 5660 5656 5652 5648 5645 5641 5637 5633 5630 5628 5626 5624 5622 5620 5618 5617 5615 5613 5611 5609 5607 5604 5603 5601 5600
5703 5687 5670 5660 5649 5645 5657 5665 5672 5687 5689 5691 5691 5690 5689 5688 5685 5683 5679 5675 5670 5666 5662 5659 5654 5649 5646 5642 5638 5635 5631 5627 5624 5622 5619 5617 5616 5614 5612 5610 5608 5606 5604 5602 5599 5597 5596 5595 5593
5690 5682 5668 5654 5651 5643 5641 5658 5687 5687 5688 5686 5687 5687 5685 5683 5680 5677 5673 5670 5665 5661 5656 5653 5648 5643 5640 5636 5633 5629 5625 5622 5619 5616 5613 5611 5609 5607 5606 5604 5602 5600 5598 5596 5593 5591 5589 5588 5587
5690 5682 5667 5655 5650 5644 5639 5655 5691 5687 5687 5685 5683 5683 5681 5678 5675 5672 5668 5664 5659 5655 5651 5647 5643 5639 5635 5631 5627 5623 5620 5616 5613 5610 5608 5605 5603 5601 5599 5598 5595 5593 5592 5590 5587 5586 5584 5582 5582